Date,TemperatureHighF,TemperatureAvgF,TemperatureLowF,DewpointHighF,DewpointAvgF,DewpointLowF,HumidityHigh,HumidityAvg,HumidityLow,PressureMaxIn,PressureMinIn,WindSpeedMaxMPH,WindSpeedAvgMPH,GustSpeedMaxMPH,PrecipitationSumIn
2012-1-1,54,44,33,41,23,10,70,45,30,29.72,29.13,30,11,30,0.00
2012-1-2,34,28,24,13,8,3,48,43,39,29.84,29.66,30,10,30,0.00
2012-1-3,39,27,18,14,8,2,55,43,33,29.90,29.57,17,5,17,0.00
2012-1-4,52,38,29,26,19,10,61,45,36,29.60,29.42,15,5,15,0.00
2012-1-5,63,44,28,32,26,19,74,51,29,29.54,29.31,17,5,17,0.00
2012-1-6,65,50,40,35,30,25,58,46,30,29.34,29.19,19,6,22,0.00
2012-1-7,56,44,38,30,24,21,56,45,31,29.63,29.28,11,4,13,0.00
2012-1-8,48,39,30,29,24,20,73,55,44,29.72,29.60,11,4,11,0.00
2012-1-9,55,40,31,28,22,19,68,51,32,29.63,29.51,10,2,10,0.00
2012-1-10,61,41,29,32,24,19,68,51,31,29.54,29.16,10,2,10,0.00
2012-1-11,45,42,39,43,39,26,95,89,49,29.16,28.92,11,4,13,0.29
2012-1-12,40,24,15,38,17,7,93,75,51,29.31,29.01,27,10,28,0.04
2012-1-13,25,18,11,12,7,2,77,61,53,29.57,29.28,22,6,24,0.00
2012-1-14,36,24,9,19,12,0,75,61,42,29.69,29.42,13,3,13,0.00
2012-1-15,44,32,20,25,20,14,80,63,43,29.81,29.48,17,4,17,0.00
2012-1-16,61,52,34,54,41,20,82,67,54,29.48,29.19,30,11,30,0.00
2012-1-17,61,41,24,58,32,10,97,69,53,29.72,29.10,34,11,34,1.21
2012-1-18,37,26,17,18,12,5,65,53,41,29.75,29.42,15,4,17,0.00
2012-1-19,40,30,18,21,16,4,66,57,43,29.54,29.34,17,7,17,0.00
2012-1-20,32,28,17,28,19,4,89,71,53,29.57,29.25,13,5,14,0.00
2012-1-21,30,26,23,24,20,16,89,79,70,29.60,29.36,15,5,15,0.00
2012-1-22,55,39,28,54,38,25,98,96,89,29.48,28.92,21,5,28,0.75
2012-1-23,52,42,31,51,32,23,98,68,47,29.48,28.89,27,7,27,0.79
2012-1-24,47,34,26,27,23,20,80,66,43,29.75,29.48,11,3,11,0.00
2012-1-25,34,32,30,34,28,23,98,85,74,29.72,29.36,13,4,13,0.29
2012-1-26,39,37,34,39,36,34,98,97,89,29.36,29.13,15,4,15,1.08
2012-1-27,46,39,36,34,29,26,92,69,51,29.48,29.19,23,4,23,0.00
2012-1-28,45,36,31,36,22,13,92,57,34,29.72,29.36,21,7,21,0.12
2012-1-29,49,38,30,22,17,15,59,44,30,29.69,29.57,18,5,22,0.00
2012-1-30,61,46,30,33,27,16,68,48,34,29.63,29.42,23,7,23,0.00
2012-1-31,62,55,48,51,38,26,78,54,38,29.48,29.36,24,10,24,0.00
2012-2-1,63,53,44,52,40,33,89,64,36,29.60,29.42,13,4,14,0.00
2012-2-2,65,46,33,40,32,27,85,60,33,29.75,29.57,5,1,6,0.00
2012-2-3,58,47,37,44,33,28,92,62,35,29.78,29.54,15,4,15,0.12
2012-2-4,47,45,42,46,44,41,98,97,87,29.60,29.42,17,5,17,0.79
2012-2-5,50,42,32,41,31,23,97,69,38,29.69,29.51,14,5,15,0.00
2012-2-6,47,35,28,33,27,22,89,74,54,29.69,29.57,11,2,11,0.00
2012-2-7,39,32,26,33,26,21,86,78,70,29.72,29.60,12,2,13,0.00
2012-2-8,38,34,32,31,24,18,89,68,52,29.84,29.69,14,5,14,0.04
2012-2-9,41,35,32,24,19,16,64,51,41,29.78,29.60,11,3,11,0.00
2012-2-10,39,33,22,35,26,8,87,73,54,29.63,29.36,26,7,26,0.04
2012-2-11,29,22,16,10,3,-1,58,44,37,29.90,29.60,27,10,27,0.00
2012-2-12,39,26,18,12,5,1,51,42,31,29.90,29.69,17,5,19,0.00
2012-2-13,37,30,20,26,15,6,80,56,41,29.69,29.34,18,4,18,0.00
2012-2-14,41,34,30,33,29,24,88,79,63,29.48,29.25,11,3,12,0.12
2012-2-15,45,41,31,44,38,26,96,91,82,29.54,29.36,16,4,17,0.30
2012-2-16,51,43,32,45,36,27,98,78,49,29.66,29.39,16,4,17,0.16
2012-2-17,57,40,28,38,27,23,89,61,31,29.63,29.48,13,2,13,0.00
2012-2-18,47,40,34,29,24,20,68,54,39,29.57,29.48,15,6,15,0.00
2012-2-19,43,35,30,21,19,16,64,52,38,29.57,29.48,17,7,20,0.00
2012-2-20,51,38,24,26,21,14,77,52,35,29.69,29.28,13,4,13,0.00
2012-2-21,54,45,36,35,29,22,65,53,41,29.34,29.13,23,7,26,0.00
2012-2-22,62,48,33,35,27,20,70,46,27,29.25,28.89,19,4,19,0.00
2012-2-23,64,51,40,44,36,27,78,57,35,28.98,28.71,15,3,15,0.00
2012-2-24,50,40,33,40,23,16,75,50,39,29.51,28.92,30,9,30,0.00
2012-2-25,45,34,29,20,15,12,56,45,35,29.72,29.51,26,5,26,0.00
2012-2-26,63,44,27,28,20,12,60,41,26,29.69,29.48,25,6,25,0.00
2012-2-27,58,46,40,27,21,16,49,37,28,29.84,29.54,16,5,16,0.00
2012-2-28,60,48,34,52,27,15,76,45,35,29.81,29.19,19,5,19,0.00
2012-2-29,71,60,48,60,37,22,92,46,23,29.28,29.07,35,11,35,0.04
2012-3-1,68,50,38,33,27,23,59,42,25,29.36,29.07,16,4,16,0.00
2012-3-2,77,50,35,58,37,25,83,61,42,29.25,28.77,34,8,34,0.25
2012-3-3,48,38,30,28,22,16,76,54,35,29.36,29.22,23,6,23,0.00
2012-3-4,49,36,28,31,22,15,87,57,34,29.42,29.31,18,4,18,0.00
2012-3-5,53,37,26,27,20,16,79,52,32,29.84,29.42,21,5,21,0.00
2012-3-6,72,55,36,34,26,18,50,33,24,29.69,29.48,45,11,45,0.00
2012-3-7,71,63,55,48,37,24,53,38,28,29.60,29.42,32,12,32,0.00
2012-3-8,66,48,37,58,34,21,91,61,41,29.81,29.36,35,8,35,0.38
2012-3-9,56,43,33,22,18,14,55,39,23,29.93,29.78,20,5,20,0.00
2012-3-10,66,46,30,29,21,15,56,39,23,29.90,29.66,13,3,14,0.00
2012-3-11,70,53,37,49,32,19,80,45,30,29.69,29.45,21,4,21,0.00
2012-3-12,79,66,54,56,51,45,89,63,31,29.45,29.31,32,10,32,0.00
2012-3-13,86,67,52,54,46,39,82,51,22,29.54,29.39,15,3,15,0.00
2012-3-14,84,69,55,60,54,48,88,61,36,29.57,29.42,23,6,25,0.00
2012-3-15,76,67,63,61,57,51,86,70,54,29.60,29.48,20,5,20,0.20
2012-3-16,81,66,57,56,51,48,79,61,35,29.60,29.48,13,2,13,0.00
2012-3-17,86,66,58,62,56,48,90,71,35,29.57,29.48,23,3,31,0.16
2012-3-18,84,69,59,63,56,50,92,67,35,29.57,29.48,20,5,20,0.16
2012-3-19,86,71,63,58,52,43,81,54,30,29.54,29.36,25,5,25,0.00
2012-3-20,87,74,62,53,48,45,65,42,25,29.51,29.39,26,5,28,0.00
2012-3-21,86,74,65,52,49,45,58,42,29,29.54,29.42,24,4,24,0.00
2012-3-22,71,66,61,62,56,48,90,71,45,29.60,29.42,13,3,13,0.21
2012-3-23,67,59,52,60,52,40,94,80,49,29.51,29.28,17,3,17,0.46
2012-3-24,72,59,51,54,49,42,94,71,38,29.39,29.25,10,3,10,0.28
2012-3-25,73,63,55,53,50,47,84,66,42,29.57,29.36,17,4,17,0.00
2012-3-26,72,61,54,54,41,31,89,52,32,29.69,29.54,15,5,15,0.00
2012-3-27,80,62,48,49,38,31,55,42,26,29.60,29.39,16,5,16,0.00
2012-3-28,84,70,59,54,45,33,63,43,20,29.48,29.36,15,4,15,0.00
2012-3-29,74,64,54,45,39,33,67,42,30,29.48,29.31,11,4,12,0.05
2012-3-30,84,66,55,61,51,39,90,62,34,29.34,29.19,18,4,24,0.99
2012-3-31,74,59,48,52,47,43,83,65,41,29.39,29.31,61,4,61,0.00
2012-4-1,88,71,58,59,54,50,78,59,31,29.31,29.13,15,3,15,0.00
2012-4-2,92,74,63,63,58,55,84,59,33,29.36,29.13,10,2,10,0.00
2012-4-3,84,71,59,62,55,50,86,61,34,29.39,29.31,15,3,16,0.00
2012-4-4,74,66,62,62,56,48,91,73,51,29.36,29.19,13,4,13,0.13
2012-4-5,64,56,49,54,41,28,91,61,31,29.48,29.19,20,-62,20,0.37
2012-4-6,62,50,40,34,31,26,71,49,31,29.63,29.45,0,-999,0,0.00
2012-4-7,71,55,40,43,35,32,75,50,27,29.69,29.57,5,-849,5,0.00
2012-4-8,70,58,48,44,34,25,72,43,23,29.78,29.57,15,4,18,0.00
2012-4-9,72,65,57,31,28,25,35,26,19,29.60,29.45,29,6,29,0.00
2012-4-10,61,52,44,31,22,17,39,30,25,29.60,29.48,20,6,22,0.00
2012-4-11,55,45,40,26,21,18,55,40,27,29.63,29.51,10,2,10,0.00
2012-4-12,67,49,34,31,28,25,72,46,26,29.72,29.54,10,2,12,0.00
2012-4-13,59,51,46,44,36,28,83,58,36,29.63,29.48,15,2,15,0.33
2012-4-14,76,62,50,65,53,44,91,75,48,29.51,29.31,17,3,19,0.58
2012-4-15,82,70,60,57,53,50,88,56,41,29.36,29.19,25,7,26,0.21
2012-4-16,66,58,50,57,44,37,90,61,36,29.69,29.22,29,6,29,0.59
2012-4-17,69,57,45,49,40,35,85,59,32,29.84,29.66,9,1,10,0.00
2012-4-18,74,58,44,46,40,37,83,55,30,29.69,29.48,10,1,10,0.00
2012-4-19,78,63,48,46,41,37,78,48,26,29.51,29.25,15,2,15,0.00
2012-4-20,65,54,46,47,42,36,85,65,43,29.45,29.19,17,6,18,0.20
2012-4-21,56,48,43,39,34,31,74,59,40,29.48,29.39,13,4,14,0.00
2012-4-22,61,51,44,43,33,21,83,54,28,29.51,29.34,20,4,20,0.00
2012-4-23,64,50,37,34,26,20,54,40,28,29.51,29.31,19,6,23,0.00
2012-4-24,73,57,44,44,39,33,69,51,32,29.34,29.10,13,3,14,0.00
2012-4-25,82,68,53,56,51,43,76,57,36,29.16,29.04,13,3,13,0.00
2012-4-26,79,68,55,61,49,32,91,54,31,29.51,29.07,20,6,22,0.17
2012-4-27,62,54,43,34,27,20,46,35,28,29.60,29.36,17,5,19,0.00
2012-4-28,79,66,56,62,50,30,88,59,35,29.51,29.31,13,4,16,0.04
2012-4-29,70,61,52,59,55,49,93,81,63,29.57,29.45,13,4,13,0.04
2012-4-30,80,67,59,66,59,55,92,76,45,29.54,29.42,17,-26,17,0.41
2012-5-1,85,70,58,69,59,55,95,71,39,29.51,29.36,18,4,20,0.17
2012-5-2,90,78,67,63,58,53,77,53,31,29.51,29.36,22,5,24,0.00
2012-5-3,86,76,66,64,60,57,75,58,42,29.57,29.45,15,4,19,0.00
2012-5-4,84,74,67,69,65,61,88,74,57,29.57,29.39,15,2,15,0.50
2012-5-5,88,74,63,70,67,59,97,79,50,29.48,29.39,32,2,32,1.25
2012-5-6,91,79,69,69,64,54,89,64,36,29.51,29.42,13,2,13,0.00
2012-5-7,79,72,65,62,58,54,79,62,45,29.45,29.36,14,5,14,0.12
2012-5-8,73,66,59,57,46,35,84,52,26,29.48,29.39,15,4,17,0.00
2012-5-9,71,62,54,47,41,36,74,47,32,29.45,29.36,16,4,17,0.00
2012-5-10,71,62,51,46,39,34,74,46,27,29.51,29.39,10,2,10,0.00
2012-5-11,77,63,49,49,42,38,75,49,27,29.63,29.48,11,1,11,0.00
2012-5-12,76,65,56,52,47,42,74,54,31,29.69,29.60,7,1,7,0.00
2012-5-13,79,67,54,52,46,40,80,51,28,29.66,29.48,13,4,15,0.00
2012-5-14,80,68,58,49,43,37,52,41,30,29.57,29.48,11,4,11,0.00
2012-5-15,83,70,54,43,39,35,60,35,20,29.54,29.42,11,2,15,0.00
2012-5-16,80,70,60,50,40,25,57,37,21,29.51,29.42,15,5,16,0.00
2012-5-17,79,66,52,42,34,24,46,31,21,29.54,29.45,13,3,14,0.00
2012-5-18,86,70,54,53,46,37,61,43,29,29.51,29.42,10,1,10,0.00
2012-5-19,90,76,64,60,54,50,73,48,28,29.57,29.45,11,2,12,0.00
2012-5-20,90,73,64,61,56,52,83,58,30,29.63,29.51,22,3,22,0.45
2012-5-21,74,66,57,61,49,43,86,56,35,29.60,29.54,17,6,17,0.38
2012-5-22,76,65,53,45,40,35,66,43,23,29.57,29.36,18,4,18,0.00
2012-5-23,82,68,52,51,44,40,75,46,24,29.39,29.25,12,2,12,0.00
2012-5-24,89,75,59,58,51,44,65,44,29,29.34,29.19,22,4,23,0.00
2012-5-25,89,80,72,64,60,53,62,51,40,29.57,29.34,11,2,12,0.00
2012-5-26,93,80,69,66,61,56,70,53,35,29.63,29.54,13,2,15,0.00
2012-5-27,93,80,68,63,57,53,72,48,27,29.57,29.45,12,2,12,0.00
2012-5-28,94,82,73,62,57,52,62,43,27,29.48,29.34,19,4,19,0.00
2012-5-29,86,76,68,63,56,46,84,54,28,29.45,29.34,18,2,18,0.33
2012-5-30,80,71,64,58,48,40,72,46,25,29.51,29.36,12,3,13,0.00
2012-5-31,70,63,54,58,49,40,84,62,45,29.39,29.22,15,4,15,0.21
2012-6-1,66,57,50,50,41,34,85,59,33,29.42,29.28,18,5,18,0.00
2012-6-2,77,64,51,48,44,40,73,51,31,29.42,29.28,17,3,17,0.00
2012-6-3,85,72,57,55,49,44,77,48,25,29.39,29.31,12,2,12,0.00
2012-6-4,89,74,63,59,53,47,73,50,32,29.39,29.28,17,3,17,0.00
2012-6-5,81,70,58,50,44,40,65,41,25,29.45,29.36,15,5,15,0.00
2012-6-6,78,68,58,46,40,36,62,38,23,29.54,29.42,18,4,18,0.00
2012-6-7,83,71,56,47,42,37,62,38,21,29.60,29.48,13,2,13,0.00
2012-6-8,87,73,58,53,45,40,69,41,21,29.60,29.45,9,1,9,0.00
2012-6-9,90,76,61,53,49,44,64,40,24,29.48,29.39,13,2,13,0.00
2012-6-10,90,77,64,59,54,49,65,46,30,29.51,29.39,13,2,14,0.00
2012-6-11,87,72,67,68,63,55,90,74,45,29.57,29.39,26,2,26,0.62
2012-6-12,82,73,66,65,48,38,92,47,22,29.60,29.45,15,5,16,0.00
2012-6-13,82,70,59,49,43,36,58,38,21,29.60,29.48,11,4,13,0.00
2012-6-14,88,74,59,54,50,47,70,45,26,29.57,29.48,10,1,10,0.00
2012-6-15,90,76,62,58,53,47,66,47,30,29.57,29.48,9,1,9,0.00
2012-6-16,92,82,70,65,59,56,74,49,31,29.66,29.48,15,4,17,0.00
2012-6-17,91,80,71,63,60,56,72,53,38,29.57,29.42,15,5,18,0.00
2012-6-18,93,82,72,62,57,51,65,45,29,29.51,29.39,25,6,25,0.00
2012-6-19,93,82,72,62,56,52,62,43,28,29.63,29.48,19,-41,20,0.00
2012-6-20,95,82,70,61,54,50,62,40,22,29.63,29.48,15,-10,18,0.00
2012-6-21,91,80,71,62,56,51,60,45,28,29.60,29.48,14,-67,14,0.00
2012-6-22,88,77,66,58,50,42,70,42,22,29.57,29.45,13,3,13,0.00
2012-6-23,89,76,62,55,48,40,68,40,19,29.54,29.45,10,2,10,0.00
2012-6-24,93,81,70,57,54,48,61,41,23,29.57,29.42,10,1,10,0.00
2012-6-25,90,80,68,60,50,33,59,37,19,29.54,29.36,19,6,20,0.00
2012-6-26,86,73,61,48,42,37,58,35,19,29.51,29.36,13,4,15,0.00
2012-6-27,94,78,59,48,43,39,53,32,17,29.51,29.36,12,2,13,0.00
2012-6-28,104,88,74,50,46,41,36,25,15,29.45,29.36,15,4,15,0.00
2012-6-29,104,89,73,59,52,46,51,31,15,29.48,29.34,14,3,15,0.00
2012-6-30,103,90,78,62,54,48,46,31,17,29.45,29.34,13,3,13,0.00
2012-7-1,103,89,76,62,55,47,58,34,17,29.54,29.39,15,3,16,0.00
2012-7-2,103,84,73,62,57,45,56,41,17,29.57,29.45,15,2,16,0.00
2012-7-3,100,83,74,69,60,54,78,51,23,29.51,29.42,11,2,15,0.13
2012-7-4,102,87,74,71,59,45,82,47,16,29.54,29.42,12,2,13,0.00
2012-7-5,105,96,80,63,53,47,56,27,15,29.54,29.48,13,-39,14,0.00
2012-7-6,104,91,77,70,58,47,69,37,16,29.60,29.48,11,-12,11,0.00
2012-7-7,106,92,79,66,58,47,60,36,15,29.57,29.45,17,-143,17,0.00
2012-7-8,98,83,72,74,64,57,87,56,30,29.57,29.45,28,4,28,0.79
2012-7-9,90,80,72,67,60,55,78,53,32,29.60,29.48,10,2,10,0.00
2012-7-10,95,82,71,64,54,45,74,43,19,29.60,29.48,13,3,13,0.00
2012-7-11,96,82,69,56,52,45,52,37,18,29.63,29.51,11,4,13,0.00
2012-7-12,94,79,70,63,57,52,61,47,27,29.63,29.48,10,2,10,0.00
2012-7-13,91,85,77,62,58,54,59,42,31,29.63,29.54,9,2,10,0.00
2012-7-14,88,79,73,69,65,60,78,63,42,29.63,29.54,10,2,13,0.04
2012-7-15,95,82,71,71,63,55,86,56,29,29.69,29.54,10,2,10,0.00
2012-7-16,98,86,75,71,62,56,76,49,27,29.60,29.45,14,3,15,0.00
2012-7-17,101,88,76,68,61,51,69,44,20,29.51,29.42,13,3,13,0.00
2012-7-18,102,89,78,68,62,51,66,43,19,29.54,29.39,12,3,12,0.00
2012-7-19,100,89,79,67,60,50,62,40,20,29.51,29.36,15,-467,15,0.00
2012-7-20,89,81,74,66,60,55,75,51,34,29.60,29.48,0,-999,0,0.00
2012-7-21,92,80,68,62,51,41,76,42,18,29.63,29.51,13,-338,13,0.00
2012-7-22,98,83,68,58,52,45,58,37,18,29.66,29.54,10,2,10,0.00
2012-7-23,103,89,75,66,56,47,63,36,17,29.63,29.51,15,4,18,0.00
2012-7-24,105,91,79,63,56,47,54,34,15,29.57,29.42,16,4,16,0.00
2012-7-25,105,92,80,65,57,47,59,34,15,29.48,29.31,19,5,19,0.00
2012-7-26,96,86,76,64,59,53,65,42,26,29.39,29.28,17,6,17,0.00
2012-7-27,99,84,72,68,55,42,79,44,17,29.51,29.36,23,-45,24,0.00
2012-7-28,91,80,68,54,50,45,58,37,21,29.63,29.48,15,4,15,0.00
2012-7-29,92,80,69,59,53,49,56,41,24,29.60,29.48,12,3,13,0.00
2012-7-30,94,82,71,64,60,55,69,50,29,29.51,29.39,13,2,13,0.00
2012-7-31,101,86,71,68,59,47,79,46,17,29.51,29.39,14,3,14,0.00
2012-8-1,99,85,73,61,50,38,65,34,13,29.51,29.36,11,3,12,0.00
2012-8-2,100,82,70,69,56,45,87,45,22,29.45,29.28,23,3,23,0.21
2012-8-3,94,81,71,70,67,61,89,66,38,29.45,29.31,13,2,13,0.21
2012-8-4,92,82,76,75,68,59,85,64,34,29.51,29.39,16,3,20,0.04
2012-8-5,90,80,72,71,58,43,85,53,20,29.69,29.48,16,4,18,0.04
2012-8-6,92,79,66,56,48,40,66,37,18,29.66,29.48,15,3,15,0.00
2012-8-7,97,81,65,55,48,41,64,35,16,29.54,29.45,9,-52,9,0.00
2012-8-8,100,85,73,55,50,43,46,32,16,29.51,29.42,13,-251,14,0.00
2012-8-9,95,82,71,58,53,44,61,40,18,29.48,29.28,15,-7,15,0.00
2012-8-10,81,73,68,60,51,44,72,47,30,29.48,29.34,15,-37,15,0.00
2012-8-11,86,72,58,46,41,35,61,35,19,29.51,29.42,17,3,18,0.00
2012-8-12,86,71,58,49,44,37,63,41,20,29.51,29.42,11,2,11,0.00
2012-8-13,82,72,63,63,56,44,86,58,40,29.48,29.36,20,4,25,0.25
2012-8-14,82,72,65,59,52,46,78,53,30,29.51,29.42,12,4,12,0.00
2012-8-15,90,74,63,58,52,39,76,51,19,29.51,29.42,11,2,11,0.00
2012-8-16,96,79,67,68,63,53,90,65,29,29.48,29.34,38,-1,38,0.99
2012-8-17,80,70,63,66,50,38,87,51,24,29.54,29.42,12,-174,12,0.05
2012-8-18,82,69,56,52,44,36,76,45,21,29.51,29.36,12,2,12,0.00
2012-8-19,82,70,62,51,46,37,67,46,22,29.48,29.36,17,2,18,0.00
2012-8-20,84,69,57,54,47,38,78,49,22,29.48,29.42,13,-5,13,0.00
2012-8-21,86,71,60,58,48,39,72,48,21,29.54,29.45,11,2,11,0.00
2012-8-22,91,75,60,52,45,37,68,40,18,29.60,29.48,11,2,11,0.00
2012-8-23,94,77,62,56,46,39,66,38,17,29.57,29.48,11,1,11,0.00
2012-8-24,95,78,64,56,48,42,65,38,17,29.54,29.48,13,2,13,0.00
2012-8-25,94,79,66,58,52,45,66,43,19,29.57,29.48,20,3,20,0.00
2012-8-26,92,80,70,69,59,54,83,52,30,29.60,29.48,19,4,19,0.41
2012-8-27,87,78,72,72,62,50,90,62,30,29.63,29.48,13,4,13,0.49
2012-8-28,89,77,65,56,49,41,70,42,20,29.63,29.48,16,3,16,0.00
2012-8-29,90,77,64,56,51,46,71,44,23,29.57,29.45,14,3,14,0.00
2012-8-30,94,79,66,58,52,43,67,42,18,29.57,29.42,10,-55,11,0.00
2012-8-31,92,80,74,72,64,58,90,62,34,29.60,29.39,19,2,22,1.29
2012-9-1,85,75,71,75,70,63,94,85,54,29.51,29.34,18,-4,18,2.20
2012-9-2,85,76,72,73,70,64,95,83,52,29.36,29.25,14,4,14,0.33
2012-9-3,82,76,72,71,68,65,91,78,59,29.48,29.36,10,-116,10,0.00
2012-9-4,91,80,70,72,66,61,93,68,39,29.48,29.39,10,1,10,0.00
2012-9-5,83,74,66,71,68,55,91,80,50,29.51,29.34,30,2,30,0.21
2012-9-6,91,76,67,73,64,57,93,69,33,29.51,29.39,15,2,15,0.00
2012-9-7,90,74,64,67,63,58,92,71,42,29.42,29.19,20,3,20,1.25
2012-9-8,72,65,58,65,48,39,90,58,32,29.48,29.36,20,5,20,1.25
2012-9-9,73,64,57,49,45,40,72,52,32,29.60,29.39,15,4,15,0.00
2012-9-10,78,66,56,51,46,41,74,52,29,29.69,29.60,9,2,10,0.00
2012-9-11,82,67,56,56,50,46,81,56,31,29.72,29.60,12,1,12,0.00
2012-9-12,84,70,58,59,52,47,79,56,30,29.72,29.60,14,2,14,0.00
2012-9-13,85,71,62,60,54,46,77,58,35,29.78,29.66,15,2,15,0.00
2012-9-14,72,64,60,57,48,38,87,57,31,29.81,29.72,15,5,15,0.04
2012-9-15,72,64,55,47,44,39,68,50,32,29.78,29.60,12,2,12,0.00
2012-9-16,75,66,58,59,53,47,82,63,46,29.63,29.48,9,1,9,0.00
2012-9-17,70,66,62,65,62,57,91,85,73,29.54,29.34,10,2,10,0.62
2012-9-18,67,59,50,64,40,29,90,52,25,29.57,29.34,22,6,22,0.00
2012-9-19,72,58,45,43,38,34,77,52,27,29.63,29.45,15,3,15,0.00
2012-9-20,74,62,55,56,44,32,75,52,23,29.48,29.42,13,3,13,0.08
2012-9-21,79,64,51,63,50,42,87,63,37,29.48,29.19,23,3,23,0.46
2012-9-22,68,59,48,52,38,24,86,52,20,29.66,29.36,21,5,21,0.08
2012-9-23,66,53,44,37,32,26,67,47,25,29.75,29.63,12,3,13,0.00
2012-9-24,64,52,42,39,36,34,74,57,34,29.69,29.42,3,0,6,0.00
2012-9-25,77,64,54,66,55,39,95,76,53,29.51,29.36,15,3,18,1.38
2012-9-26,76,67,63,69,63,61,98,89,62,29.66,29.45,37,3,37,2.44
2012-9-27,71,66,63,65,62,58,97,86,65,29.72,29.60,11,2,11,0.00
2012-9-28,71,62,57,60,45,39,84,56,32,29.69,29.57,13,4,13,0.05
2012-9-29,73,62,52,51,46,41,81,60,34,29.63,29.48,10,3,11,0.00
2012-9-30,73,62,52,51,45,35,85,58,26,29.51,29.31,12,2,12,0.00
2012-10-1,61,58,55,52,45,40,83,65,49,29.36,29.19,13,5,13,0.12
2012-10-2,60,57,54,53,48,44,90,74,59,29.39,29.22,13,5,13,0.04
2012-10-3,76,63,57,55,51,43,88,68,33,29.60,29.36,15,3,18,0.33
2012-10-4,79,65,55,59,52,42,91,66,35,29.69,29.60,14,3,15,0.33
2012-10-5,58,49,41,44,40,35,91,74,55,29.69,29.54,13,5,13,0.96
2012-10-6,54,44,37,35,29,23,84,57,32,29.63,29.60,13,4,15,0.08
2012-10-7,54,45,39,31,27,22,71,50,32,29.69,29.57,12,3,15,0.00
2012-10-8,61,46,35,37,31,28,79,57,32,29.66,29.48,13,2,14,0.00
2012-10-9,65,52,39,41,36,32,78,56,34,29.54,29.36,17,4,17,0.00
2012-10-10,57,49,38,39,29,21,72,48,27,29.69,29.39,20,5,20,0.00
2012-10-11,65,50,36,38,31,27,73,52,31,29.69,29.54,16,2,16,0.00
2012-10-12,65,56,49,42,40,37,71,56,39,29.78,29.60,13,3,16,0.00
2012-10-13,76,62,50,61,54,42,90,74,51,29.69,29.34,20,3,20,0.00
2012-10-14,74,66,55,62,54,45,91,67,38,29.42,29.19,30,8,30,0.25
2012-10-15,68,56,48,46,40,34,78,57,32,29.48,29.36,13,3,15,0.00
2012-10-16,76,61,46,48,43,39,77,54,32,29.45,29.13,19,4,19,0.00
2012-10-17,73,63,54,60,48,42,90,60,40,29.16,28.86,24,6,27,1.21
2012-10-18,64,56,48,50,35,26,84,49,25,29.13,29.01,25,6,25,1.21
2012-10-19,55,51,50,39,34,29,64,52,38,29.07,29.01,17,6,20,0.00
2012-10-20,63,54,48,42,40,37,76,60,43,29.39,29.28,11,3,11,0.00
2012-10-21,76,61,46,55,47,40,83,61,35,29.45,29.36,11,2,11,0.00
2012-10-22,78,68,63,60,49,44,71,50,42,29.48,29.39,21,4,21,0.08
2012-10-23,70,66,63,61,50,43,83,57,43,29.48,29.36,12,4,14,0.46
2012-10-24,81,69,60,57,53,50,72,59,41,29.51,29.42,14,4,16,0.00
2012-10-25,82,66,46,56,52,39,86,61,39,29.60,29.34,23,6,23,0.29
2012-10-26,50,45,41,42,30,26,87,58,40,29.75,29.54,20,7,20,0.66
2012-10-27,53,43,35,30,26,23,70,51,37,29.69,29.60,18,6,18,0.00
2012-10-28,52,43,37,28,26,23,65,51,37,29.66,29.60,15,6,15,0.00
2012-10-29,56,44,35,29,24,19,70,46,28,29.69,29.48,20,6,20,0.00
2012-10-30,57,46,39,21,18,15,45,34,22,29.48,29.25,27,7,27,0.00
2012-10-31,54,43,34,26,19,15,53,39,28,29.39,29.28,17,5,19,0.00
2012-11-1,53,48,40,29,26,16,52,43,36,29.39,29.31,7,1,7,0.00
2012-11-2,56,47,39,31,27,25,57,46,33,29.48,29.31,12,3,12,0.00
2012-11-3,50,45,38,34,30,25,78,55,46,29.57,29.42,15,5,15,0.00
2012-11-4,52,42,33,32,28,25,79,59,37,29.66,29.54,13,3,13,0.00
2012-11-5,49,42,40,33,30,27,70,62,49,29.60,29.48,7,2,8,0.00
2012-11-6,51,44,41,41,34,28,87,67,45,29.48,29.34,11,3,11,0.05
2012-11-7,52,45,41,40,36,29,89,70,44,29.60,29.31,13,4,13,0.05
2012-11-8,58,44,33,39,32,27,82,63,40,29.66,29.48,11,1,11,0.00
2012-11-9,69,54,38,47,39,30,77,58,36,29.54,29.39,15,4,17,0.00
2012-11-10,74,63,54,44,40,36,57,44,31,29.51,29.42,22,6,22,0.00
2012-11-11,68,60,50,52,45,35,92,59,42,29.48,29.31,28,6,29,0.66
2012-11-12,50,38,31,48,23,16,93,55,31,29.84,29.45,24,6,24,1.12
2012-11-13,50,36,27,25,19,16,73,51,29,29.96,29.81,9,-93,10,0.00
2012-11-14,49,36,30,24,20,16,65,52,35,29.90,29.72,8,-234,8,0.00
2012-11-15,53,38,26,29,23,18,74,57,34,29.81,29.72,6,-52,6,0.00
2012-11-16,58,40,29,31,24,20,75,53,27,29.87,29.78,8,1,8,0.00
2012-11-17,58,42,30,31,25,20,71,53,29,29.93,29.78,10,1,11,0.00
2012-11-18,64,44,30,35,27,22,74,53,28,29.81,29.72,9,1,9,0.00
2012-11-19,62,48,35,37,30,26,74,53,33,29.72,29.54,10,1,10,0.00
2012-11-20,65,55,45,42,38,32,65,53,43,29.60,29.48,8,2,9,0.00
2012-11-21,66,50,40,46,39,34,85,67,41,29.72,29.57,7,1,7,0.00
2012-11-22,66,52,40,51,40,33,88,65,35,29.60,29.39,19,5,19,0.24
2012-11-23,55,42,29,51,23,11,85,48,30,29.72,29.42,27,8,27,0.24
2012-11-24,41,31,24,18,14,11,58,49,39,29.75,29.48,12,3,12,0.00
2012-11-25,56,41,30,27,22,16,60,46,30,29.48,29.34,14,4,15,0.00
2012-11-26,47,38,32,25,21,15,68,50,38,29.75,29.45,15,-358,16,0.00
2012-11-27,45,32,25,21,16,13,65,53,37,29.84,29.72,0,-999,0,0.00
2012-11-28,53,34,24,25,18,14,73,53,31,29.84,29.72,8,-424,8,0.00
2012-11-29,57,42,27,29,22,15,69,48,33,29.72,29.54,15,-184,17,0.00
2012-11-30,64,50,41,39,29,20,68,44,33,29.57,29.48,13,5,15,0.00
2012-12-1,67,56,42,45,41,36,84,60,44,29.57,29.42,17,5,17,0.00
2012-12-2,72,63,59,58,50,41,90,65,48,29.51,29.39,23,6,24,0.00
2012-12-3,71,64,60,58,54,49,90,71,49,29.51,29.42,25,7,25,0.00
2012-12-4,62,53,39,56,43,32,88,68,44,29.69,29.45,16,4,16,0.05
2012-12-5,57,44,34,36,29,24,83,57,34,29.78,29.60,10,-12,10,0.00
2012-12-6,54,44,34,39,32,24,74,62,46,29.60,29.36,8,2,8,0.00
2012-12-7,59,52,46,55,47,38,93,84,73,29.39,29.25,9,-2,9,0.00
2012-12-8,51,48,44,48,42,36,93,80,66,29.45,29.28,13,4,13,0.04
2012-12-9,55,49,42,53,46,33,96,89,68,29.42,29.19,13,4,15,0.08
2012-12-10,43,33,30,35,20,15,75,59,51,29.48,29.25,14,-458,14,0.00
2012-12-11,44,32,25,19,15,12,67,51,34,29.63,29.45,15,4,15,0.00
2012-12-12,53,35,23,26,18,14,73,52,29,29.75,29.60,10,-37,10,0.00
2012-12-13,55,38,24,25,19,14,69,47,28,29.75,29.60,15,-120,15,0.00
2012-12-14,57,42,29,30,23,16,66,46,29,29.66,29.45,12,2,13,0.00
2012-12-15,57,51,44,51,43,26,90,75,46,29.45,29.10,26,6,26,0.25
2012-12-16,54,47,39,51,41,34,90,78,65,29.22,29.13,11,3,14,0.00
2012-12-17,43,41,40,40,38,36,96,90,81,29.19,29.10,15,4,15,0.00
2012-12-18,56,47,33,34,31,26,83,57,37,29.34,29.13,18,6,19,0.00
2012-12-19,52,41,32,43,30,23,78,66,56,29.45,29.01,13,-24,13,0.00
2012-12-20,56,42,29,55,34,15,98,75,47,29.31,28.74,39,-4,41,0.95
2012-12-21,39,30,26,15,12,9,57,47,34,29.66,29.31,30,11,33,0.00
2012-12-22,48,33,20,20,14,8,64,47,29,29.69,29.36,13,3,13,0.00
2012-12-23,57,42,33,29,24,18,63,50,29,29.39,29.25,10,-32,11,0.00
2012-12-24,40,34,26,30,24,14,73,65,56,29.51,29.22,19,-415,19,0.00
2012-12-25,36,31,25,23,19,13,73,60,48,29.63,29.34,26,-382,27,0.00
2012-12-26,34,32,29,29,24,20,98,76,57,29.51,29.19,27,10,27,0.00
2012-12-27,37,31,29,23,20,17,74,63,49,29.60,29.48,11,3,12,0.00
2012-12-28,38,33,29,30,26,20,89,75,60,29.48,29.28,6,2,6,0.00
2012-12-29,32,28,18,30,20,10,91,73,57,29.72,29.25,18,3,20,0.00
2012-12-30,37,25,12,21,15,5,77,64,45,29.84,29.60,13,0,13,0.00
2012-12-31,38,34,31,30,26,20,89,72,55,29.63,29.48,13,4,14,0.09
2013-1-1,33,25,16,31,16,6,92,67,52,29.63,29.48,12,5,12,0.00